Starlink 32265

operational
NORAD ID: 60415 Int'l Des: 2024-141 Owner: SPXS Country: US Constellation: starlink
LEOCIRCULAR

Über Starlink 32265

Beschreibung wird geladen...

Live-Position

3D-Globus wird geladen...

Nächste Überflüge

Höhenverlauf

Altitude vs Time

uPlot chart will show altitude changes over time

Zweizeiliger Elementsatz

1 60415U 24141T 25259.19801746 -.00000977 00000-0 -20865-4 0 9997
2 60415 53.1615 333.1905 0000892 94.9875 265.1228 15.30207756 62868
Epoch: 16. Sept. 2025 • Age: 12 hours

Aktueller Status

Höhe 478.6 km
Geschwindigkeit 7.63 km/s
Subsatellitenpunkt 41.82°N, 130.66°W
Startdatum 10. Aug. 2024
Alter 1.1 years
Typ internet

Technische Details

Klassifizierung Payload
Masse 730.00 kg
Trockenmasse 700.00 kg
Gesamtmasse 730.00 kg
Länge 0.30 m
Durchmesser 4.10 m
Spannweite 29.00 m
Form Box + pan
Hersteller SPXS
Bus-Typ Starlink V2M
Phasenstatus In Orbit
Besitzer/Staat SPXS/US

Große Konstellationen

Loading constellations...